Location: Lane
(33.5226°N, 79.8788°W)
Time: 19:50:50
(UTC+00:00)

Transit 2A - Pass Details

Date: 04 October 2022
Orbit: 598 x 959 km, 66.7° (Epoch: 03 December)

Event Time Altitude Azimuth Distance (km) Brightness Sun altitude
Rises 13:47:16 0° 324° (NW) 3,036 8.6 29.2°
Reaches altitude 10° 13:49:36 10° 317° (NW) 2,169 7.9 29.7°
Maximum altitude 13:54:11 40° 248° (WSW) 1,104 6.9 30.5°
Drops below altitude 10° 13:59:13 10° 181° (S) 2,381 9.0 31.4°
Sets 14:01:54 0° 174° (S) 3,370 9.8 31.9°
